Terminal Aerodrome Forecast
Issued by NWS Houston/Galveston TX

Home | Current Version | Previous Version | Text Only | Print | Product List | Glossary On
Versions: 1 2 3 4 5 6 7 8 9 10 11 12 13 14 15 16 17 18 19 20 21 22 23 24 25 26 27 28 29 30 31 32 33 34 35 36 37 38 39 40 41 42 43 44 45 46 47 48 49 50
000
FTUS44 KHGX 261804 AAA
TAFHOU
TAF AMD
KHOU 261804Z 2618/2718 10006KT P6SM VCSH SCT016 BKN070 BKN140
     FM262000 13008KT P6SM SCT020 BKN050
     FM270000 14005KT P6SM SCT020
     FM270600 13008KT 5SM BR SCT006 BKN012
     FM271400 06009KT 5SM BR VCTS BKN007 BKN020 BKN040CB=

USA.gov is the U.S. government's official web portal to all federal, state and local government web resources and services.